Weather Roundup
Issued by NWS Springfield, MO

Home | Current Version | Previous Version | Text Only | Print | Product List | Glossary On
Versions: 1 2 3 4 5 6 7 8 9 10 11 12 13 14 15 16 17 18 19 20 21 22 23 24 25 26 27 28 29 30 31 32 33 34 35 36 37 38 39 40 41 42 43 44 45 46 47 48 49 50
616
NZUS99 KSGF 250057
HRRSGF

HOURLY WEATHER
NATIONAL WEATHER SERVICE SPRINGFIELD MO
800 PM CDT WED MAY 24 2017

......SGF CWA......

CITY           SKY/WX    TMP DP  RH WIND       PRES   REMARKS
SPRINGFIELD    CLOUDY    57  53  86 NW6       29.68R
JOPLIN         MOCLDY    63  52  67 NW6       29.70R
WEST PLAINS    CLEAR     57  49  74 W7        29.65S
ROLLA          CLEAR     58  47  66 NW5       29.62R
BRANSON        MOCLDY    52  50  93 CALM      29.70S

......SURROUNDING SGF CWA......

CITY           SKY/WX    TMP DP  RH WIND       PRES   REMARKS
CHANUTE        CLEAR     65  46  50 NW7       29.69S
PARSONS        CLEAR     64  47  53 NW5       29.70S
COFFEYVILLE    CLEAR     66  47  50 NW8       29.69F
EMPORIA        PTCLDY    64  47  53 NW6       29.69S
HARRISON AR    CLOUDY    54  52  93 NW6       29.70R

......KANSAS AND MISSOURI......

CITY           SKY/WX    TMP DP  RH WIND       PRES   REMARKS
KANSAS CTY INT PTCLDY    62  50  64 N7        29.68R
SEDALIA        CLEAR     61  52  72 NW7       29.67R
ST JOSEPH      PTCLDY    63  50  62 NE5       29.68R
ST LOUIS       PTCLDY    64  48  56 NW8       29.59R
WICHITA        PTCLDY    64  46  52 CALM      29.69F
TOPEKA         CLEAR     67  48  50 CALM      29.67F
OLATHE         CLEAR     63  48  58 N6        29.68R

......TENNESSEE......

CITY           SKY/WX    TMP DP  RH WIND       PRES   REMARKS
MEMPHIS        NOT AVBL
NASHVILLE      MOCLDY    61  53  75 N6        29.56R

......ARKANSAS.......

CITY           SKY/WX    TMP DP  RH WIND       PRES   REMARKS
FAYETTEVILLE   CLEAR     59  49  69 NW5       29.70S
FT SMITH       CLEAR     67  44  43 NW9       29.70R
LITTLE ROCK    MOCLDY    65  47  52 W14       29.67R

......OKLAHOMA.......

CITY           SKY/WX    TMP DP  RH WIND       PRES   REMARKS
TULSA          CLEAR     66  46  48 NW6       29.70S
PONCA CITY     CLEAR     66  44  45 NE8       29.68F
MCALESTER      CLEAR     68  48  48 N6        29.71F
OKLAHOMA CITY  CLEAR     69  44  40 NE8       29.68F

......IOWA............

CITY           SKY/WX    TMP DP  RH WIND       PRES   REMARKS
DES MOINES     NOT AVBL
QUAD CITIES    MOCLDY    62  50  64 N7        29.61S

......ILLINOIS........

CITY           SKY/WX    TMP DP  RH WIND       PRES   REMARKS
QUINCY         PTCLDY    58  53  84 NW10      29.60S
CHICAGO        CLOUDY    59  50  72 N16G22    29.56R




USA.gov is the U.S. government's official web portal to all federal, state and local government web resources and services.